Time,TemperatureF,DewpointF,PressureIn,WindDirection,WindDirectionDegrees,WindSpeedMPH,WindSpeedGustMPH,Humidity,HourlyPrecipIn,Conditions,Clouds,dailyrainin,SoftwareType,DateUTC
2013-05-05 00:00:00,54.0,49.9,30.34,East,90,0.0,0.0,86,0.00,,,-99.99,Weather View 32 v60,2013-05-05 05:00:00,
2013-05-05 00:30:00,52.0,48.9,30.34,NE,45,0.0,1.0,89,0.00,,,-99.99,Weather View 32 v60,2013-05-05 05:30:00,
2013-05-05 01:00:00,52.0,49.2,30.34,NNE,22,0.0,1.0,90,0.00,,,-99.99,Weather View 32 v60,2013-05-05 06:00:00,
2013-05-05 01:30:00,51.0,48.8,30.33,NE,45,0.0,0.0,92,0.00,,,-99.99,Weather View 32 v60,2013-05-05 06:30:00,
2013-05-05 02:00:00,50.0,48.1,30.34,NE,45,0.0,0.0,93,0.00,,,-99.99,Weather View 32 v60,2013-05-05 07:00:00,
2013-05-05 02:30:00,51.0,48.8,30.34,East,90,0.0,7.0,92,0.00,,,-99.99,Weather View 32 v60,2013-05-05 07:30:00,
2013-05-05 03:00:00,51.0,48.2,30.34,SE,135,0.0,7.0,90,0.00,,,-99.99,Weather View 32 v60,2013-05-05 08:00:00,
2013-05-05 03:30:00,51.0,48.2,30.35,East,90,0.0,2.0,90,0.00,,,-99.99,Weather View 32 v60,2013-05-05 08:30:00,
2013-05-05 04:00:00,50.0,46.9,30.35,ESE,112,0.0,1.0,89,0.00,,,-99.99,Weather View 32 v60,2013-05-05 09:00:00,
2013-05-05 04:30:00,49.0,45.9,30.35,East,90,0.0,1.0,89,0.00,,,-99.99,Weather View 32 v60,2013-05-05 09:30:00,
2013-05-05 05:00:00,48.0,44.9,30.36,SSE,158,0.0,3.0,89,0.00,,,-99.99,Weather View 32 v60,2013-05-05 10:00:00,
2013-05-05 05:30:00,48.0,44.9,30.36,ESE,112,0.0,3.0,89,0.00,,,-99.99,Weather View 32 v60,2013-05-05 10:30:00,
2013-05-05 06:00:00,47.0,44.2,30.37,ENE,68,0.0,3.0,90,0.00,,,-99.99,Weather View 32 v60,2013-05-05 11:00:00,
2013-05-05 06:30:00,47.0,44.2,30.38,East,90,0.0,3.0,90,0.00,,,-99.99,Weather View 32 v60,2013-05-05 11:30:00,
2013-05-05 07:00:00,48.0,44.9,30.38,ESE,112,0.0,8.0,89,0.00,,,-99.99,Weather View 32 v60,2013-05-05 12:00:00,
2013-05-05 07:30:00,50.0,46.6,30.38,ESE,112,0.0,8.0,88,0.00,,,-99.99,Weather View 32 v60,2013-05-05 12:30:00,
2013-05-05 08:00:00,52.0,47.6,30.38,ESE,112,0.0,8.0,85,0.00,,,-99.99,Weather View 32 v60,2013-05-05 13:00:00,
2013-05-05 08:30:00,53.0,48.3,30.38,ESE,112,0.0,5.0,84,0.00,,,-99.99,Weather View 32 v60,2013-05-05 13:30:00,
2013-05-05 09:00:00,55.0,48.9,30.37,ESE,112,0.0,6.0,80,0.00,,,-99.99,Weather View 32 v60,2013-05-05 14:00:00,
2013-05-05 09:30:00,59.0,50.3,30.38,ENE,68,0.0,6.0,73,0.00,,,-99.99,Weather View 32 v60,2013-05-05 14:30:00,
2013-05-05 10:00:00,61.0,50.7,30.38,East,90,0.0,5.0,69,0.00,,,-99.99,Weather View 32 v60,2013-05-05 15:00:00,
2013-05-05 10:30:00,65.0,52.1,30.37,SSE,158,0.0,2.0,63,0.00,,,-99.99,Weather View 32 v60,2013-05-05 15:30:00,
2013-05-05 11:00:00,66.0,50.3,30.36,East,90,0.0,7.0,57,0.00,,,-99.99,Weather View 32 v60,2013-05-05 16:00:00,
2013-05-05 11:30:00,68.0,50.7,30.36,SSE,158,0.0,8.0,54,0.00,,,-99.99,Weather View 32 v60,2013-05-05 16:30:00,
2013-05-05 12:00:00,69.0,50.1,30.34,South,180,0.0,10.0,51,0.00,,,-99.99,Weather View 32 v60,2013-05-05 17:00:00,
2013-05-05 12:30:00,70.0,51.0,30.33,South,180,0.0,10.0,51,0.00,,,-99.99,Weather View 32 v60,2013-05-05 17:30:00,
2013-05-05 13:00:00,70.0,49.9,30.32,SE,135,0.0,11.0,49,0.00,,,-99.99,Weather View 32 v60,2013-05-05 18:00:00,
2013-05-05 13:30:00,72.0,50.0,30.31,NE,45,0.0,11.0,46,0.00,,,-99.99,Weather View 32 v60,2013-05-05 18:30:00,
2013-05-05 14:00:00,71.0,49.7,30.30,SSW,202,0.0,10.0,47,0.00,,,-99.99,Weather View 32 v60,2013-05-05 19:00:00,
2013-05-05 14:30:00,72.0,48.8,30.29,SSE,158,0.0,11.0,44,0.00,,,-99.99,Weather View 32 v60,2013-05-05 19:30:00,
2013-05-05 15:00:00,74.0,50.0,30.27,SSW,202,0.0,13.0,43,0.00,,,-99.99,Weather View 32 v60,2013-05-05 20:00:00,
2013-05-05 15:30:00,72.0,48.8,30.27,SW,225,0.0,13.0,44,0.00,,,-99.99,Weather View 32 v60,2013-05-05 20:30:00,
2013-05-05 16:00:00,71.0,49.7,30.26,SSW,202,0.0,12.0,47,0.00,,,-99.99,Weather View 32 v60,2013-05-05 21:00:00,
2013-05-05 16:30:00,71.0,49.1,30.26,South,180,0.0,12.0,46,0.00,,,-99.99,Weather View 32 v60,2013-05-05 21:30:00,
2013-05-05 17:00:00,72.0,49.4,30.26,SSW,202,0.0,7.0,45,0.00,,,-99.99,Weather View 32 v60,2013-05-05 22:00:00,
2013-05-05 17:30:00,71.0,48.5,30.25,SW,225,0.0,8.0,45,0.00,,,-99.99,Weather View 32 v60,2013-05-05 22:30:00,
2013-05-05 18:00:00,71.0,49.7,30.25,SE,135,0.0,8.0,47,0.00,,,-99.99,Weather View 32 v60,2013-05-05 23:00:00,
2013-05-05 18:30:00,70.0,47.6,30.25,SSW,202,0.0,3.0,45,0.00,,,-99.99,Weather View 32 v60,2013-05-05 23:30:00,
2013-05-05 19:00:00,69.0,47.3,30.26,ESE,112,0.0,1.0,46,0.00,,,-99.99,Weather View 32 v60,2013-05-06 00:00:00,
2013-05-05 19:30:00,67.0,47.2,30.26,ESE,112,0.0,1.0,49,0.00,,,-99.99,Weather View 32 v60,2013-05-06 00:30:00,
2013-05-05 20:00:00,65.0,51.2,30.26,South,180,0.0,0.0,61,0.00,,,-99.99,Weather View 32 v60,2013-05-06 01:00:00,
2013-05-05 20:30:00,62.0,50.1,30.27,SSE,158,0.0,0.0,65,0.00,,,-99.99,Weather View 32 v60,2013-05-06 01:30:00,
2013-05-05 21:00:00,60.0,50.9,30.28,East,90,0.0,0.0,72,0.00,,,-99.99,Weather View 32 v60,2013-05-06 02:00:00,
2013-05-05 21:30:00,57.0,49.5,30.28,SE,135,0.0,0.0,76,0.00,,,-99.99,Weather View 32 v60,2013-05-06 02:30:00,
2013-05-05 22:00:00,56.0,49.2,30.28,SSW,202,0.0,0.0,78,0.00,,,-99.99,Weather View 32 v60,2013-05-06 03:00:00,
2013-05-05 22:30:00,54.0,47.6,30.30,East,90,0.0,0.0,79,0.00,,,-99.99,Weather View 32 v60,2013-05-06 03:30:00,
2013-05-05 23:00:00,54.0,48.6,30.30,ENE,68,0.0,0.0,82,0.00,,,-99.99,Weather View 32 v60,2013-05-06 04:00:00,
2013-05-05 23:30:00,53.0,48.6,30.30,ESE,112,0.0,0.0,85,0.00,,,-99.99,Weather View 32 v60,2013-05-06 04:30:00,